Home > Weather > Bahraich > Past weeks

Flag for India Weather for the Past 2 Weeks in Bahraich, Uttar Pradesh, India

Now
100 °F

Scattered clouds.


Feels Like: 110 °F
Forecast: 81 / 102 °F
Wind: 5 mph from Southeast

Location: Lucknow / Amausi

Current Time: May 3, 2016 at 3:10:27 PM

Latest Report: May 3, 2016 at 2:00 PM


Visibility: 2 mi

Pressure: 29.65 "Hg

Humidity: 40%

Dew Point: 72 °F

Location of BahraichLocation

Historic Weather in Bahraich — Graph

°F

Bahraich Temperature Yesterday

Maximum temperature yesterday: 111 °F (at 2:30 PM)
Minimum temperature yesterday: 77 °F (at 5:30 AM)
Average temperature yesterday: 96 °F

High & Low Weather Summary for the Past Weeks

 TemperatureHumidityPressure
High113 °F (Apr 30, 1:00 PM)70% (May 3, 6:00 AM)29.77 "Hg (May 3, 6:00 AM)
Low72 °F (Apr 25, 6:00 AM)7% (Apr 29, 3:30 PM)29.45 "Hg (Apr 23, 4:00 AM)
Average95 °F23%29.63 "Hg
* Reported Apr 18 1:00 PM — May 3 1:00 PM, Bahraich, Weather by CustomWeather, © 2016

Note: Actual official high and low records may vary slightly from our data, if they occured in-between our weather recording intervals... More about our weather records

Advertising

Bahraich Weather History for the Previous 24 Hours

Scroll right to see more
 ConditionsComfort  
Time TempWeatherWind HumidityBarometerVisibility
1:00 PM
Tue, May 3
99 °FScattered clouds.7 mph42%29.68 "Hg2 mi
12:30 PM97 °FScattered clouds.9 mph44%29.68 "Hg2 mi
12:00 PM97 °FScattered clouds.12 mph44%29.68 "Hg2 mi
11:30 AM95 °FScattered clouds.14 mph47%29.71 "Hg2 mi
11:00 AM93 °FScattered clouds.14 mph47%29.71 "Hg2 mi
10:00 AM90 °FScattered clouds.14 mph52%29.71 "Hg2 mi
9:30 AM88 °FScattered clouds.12 mph55%29.71 "Hg2 mi
9:00 AM86 °FScattered clouds.12 mph55%29.71 "Hg2 mi
8:30 AM84 °FScattered clouds.12 mph62%29.71 "Hg2 mi
8:00 AM84 °FScattered clouds.12 mph62%29.71 "Hg2 mi
7:30 AM82 °FScattered clouds.12 mph66%29.68 "Hg2 mi
7:00 AM82 °FScattered clouds.13 mph66%29.68 "Hg2 mi
6:30 AM81 °FScattered clouds.8 mph70%29.65 "Hg2 mi
6:00 AM81 °FScattered clouds.7 mph70%29.65 "Hg2 mi
5:30 AM82 °FHaze.10 mph66%29.62 "Hg2 mi
5:00 AM82 °FHaze.12 mph66%29.62 "Hg2 mi
4:00 AM84 °FHaze.12 mph62%29.62 "Hg2 mi
3:00 AM84 °FHaze.6 mph62%29.62 "Hg2 mi
2:00 AM84 °FHaze.6 mph62%29.62 "Hg2 mi
1:00 AM86 °FHaze.5 mph59%29.65 "Hg2 mi
12:00 AM88 °FHaze.6 mph55%29.62 "Hg2 mi
11:00 PM
Mon, May 2
90 °FHaze.8 mph49%29.65 "Hg2 mi
10:00 PM93 °FHaze.8 mph39%29.62 "Hg2 mi
9:00 PM95 °FHaze.7 mph36%29.62 "Hg2 mi
8:30 PM95 °FHaze.7 mph34%29.59 "Hg2 mi
8:00 PM97 °FHaze.7 mph32%29.59 "Hg2 mi
7:30 PM99 °FHaze.9 mph33%29.59 "Hg2 mi
7:00 PM99 °FHaze.5 mph31%29.56 "Hg2 mi
6:30 PM100 °FHaze.3 mph27%29.56 "Hg2 mi
6:00 PM104 °FHaze.6 mph24%29.56 "Hg2 mi
5:30 PM106 °FHaze.7 mph23%29.56 "Hg2 mi
5:00 PM108 °FHaze.7 mph20%29.56 "Hg2 mi
4:30 PM109 °FHaze.9 mph19%29.56 "Hg2 mi
4:00 PM109 °FHaze.7 mph19%29.56 "Hg2 mi
3:30 PM109 °FHaze.7 mph18%29.56 "Hg2 mi
3:00 PM111 °FHaze.5 mph15%29.59 "Hg2 mi
Weather by CustomWeather, © 2016

See weather overviewHow to use our weather pages